Lid_Strength_Index
10 10 10 10 10 11 12 10 11 14 14 12 15 12 12 12 10 11 11 6 6 6 5 4 4 4 3 3 4 4 3 3 2 2 2 2 2 1
11 12 12 12 12 13 13 14 14 14 17 15 14 14 13 11 10 10 10 7 7 6 5 5 4 4 4 4 4 4 4 4 3 4 3 3 2 2
12 12 13 14 14 14 14 14 15 15 17 16 14 14 14 14 12 11 10 11 10 7 5 5 4 4 4 4 4 5 5 5 5 5 4 4 4 3
12 13 13 13 15 15 15 15 15 16 17 17 16 15 14 13 12 12 11 10 10 7 5 4 4 4 4 4 5 5 5 6 5 5 5 5 5 5
14 13 13 13 14 14 14 14 15 14 16 16 16 15 14 13 12 12 11 11 9 5 5 5 5 5 4 5 6 6 6 6 6 7 7 7 7 7
13 12 12 13 14 14 13 14 15 16 16 16 16 16 15 13 14 14 12 10 10 8 7 6 6 6 6 6 6 6 6 7 7 8 8 8 8 8
13 12 11 9 8 10 14 15 16 16 16 16 16 16 16 15 14 13 12 11 10 11 10 9 9 9 8 8 7 7 8 8 9 9 9 8 8 8
15 14 14 12 10 9 10 9 11 15 16 16 16 17 16 15 14 13 14 12 14 11 10 11 9 9 9 9 8 8 8 8 8 9 9 9 9 9
16 15 14 13 14 15 12 11 10 9 10 14 16 16 15 13 14 13 12 12 13 10 11 11 9 10 9 10 9 8 8 8 8 8 8 8 9 9
16 16 16 16 14 15 15 14 14 13 12 12 14 13 13 12 11 12 13 13 12 11 12 13 10 11 10 11 9 8 7 8 8 8 8 8 8 8
16 16 16 15 12 12 15 15 15 14 11 10 9 9 9 9 8 11 12 13 13 13 13 13 11 11 12 11 10 8 8 8 8 8 8 7 8 8
17 15 12 13 12 12 15 15 15 16 14 13 13 11 11 11 9 11 12 13 14 15 13 13 12 13 15 11 11 9 9 8 9 9 8 8 8 8
15 14 13 11 11 11 12 14 14 15 13 14 13 12 12 11 10 10 11 13 13 15 11 13 13 14 14 13 11 10 10 10 10 10 9 8 8 9
14 14 12 11 11 12 12 12 11 13 14 14 13 13 13 12 11 11 11 12 11 13 12 13 14 14 14 14 14 12 11 10 10 10 10 9 8 9
12 11 11 12 12 12 12 11 12 13 13 14 15 14 13 12 11 11 11 11 11 12 11 12 13 13 13 15 15 13 13 11 10 10 10 10 10 10
11 12 12 12 12 13 14 13 13 12 14 15 15 15 13 12 12 11 13 12 13 12 12 11 13 13 14 13 13 13 12 13 11 10 9 9 9 9
13 14 15 16 16 16 16 15 14 14 14 14 15 14 13 13 13 12 13 13 14 14 13 12 14 13 13 12 13 12 12 12 11 10 9 10 10 9
14 15 16 16 17 17 16 16 15 14 15 15 15 15 14 14 13 13 13 14 14 14 14 14 15 15 14 13 11 13 13 13 11 10 10 11 11 10
15 16 16 16 16 16 16 16 16 16 16 15 16 15 15 14 14 14 14 14 14 14 14 14 16 16 18 18 14 11 13 12 12 11 11 12 12 11
15 16 16 17 16 17 17 17 17 16 16 16 16 16 15 15 14 15 15 15 15 15 15 14 16 17 17 17 17 14 12 12 13 13 13 12 12 11
15 16 16 16 17 17 18 18 17 17 16 16 16 16 16 15 15 15 15 14 14 15 16 16 16 15 14 14 15 15 13 11 10 12 13 14 14 14
16 16 16 16 17 18 18 18 18 17 17 17 17 17 16 16 15 15 15 15 15 15 16 15 15 16 15 16 16 15 14 12 10 9 10 11 13 15
15 16 16 17 17 18 18 18 18 17 17 17 17 17 17 16 15 15 15 15 15 15 15 16 15 16 16 16 16 15 14 13 12 12 11 10 10 10